This is the latest recevied weather packets stored in our database for station/object K1AWR. If no packets are shown the sender has not sent any weather packets the latest 10 day(s).
| Time | Temp. | Humidity | Pressure | Rain* | Wind** | Luminosity | Snow |
|---|---|---|---|---|---|---|---|
| 1777801088 | 3.89° C | 69% | 1009.6 hPa | 0 mm | - | 1 W/m² | - |
| 1777800784 | 3.89° C | 69% | 1009.6 hPa | 0 mm | - | 0 W/m² | - |
| 1777800480 | 3.89° C | 68% | 1009.6 hPa | 0 mm | - | 0 W/m² | - |
| 1777800177 | 4.44° C | 66% | 1009.8 hPa | 0 mm | - | 0 W/m² | - |
| 1777799876 | 4.44° C | 66% | 1009.6 hPa | 0 mm | - | 0 W/m² | - |
| 1777799574 | 4.44° C | 66% | 1009.6 hPa | 0 mm | - | 0 W/m² | - |
| 1777799270 | 4.44° C | 67% | 1009.6 hPa | 0 mm | - | 0 W/m² | - |
| 1777798966 | 3.89° C | 68% | 1009.7 hPa | 0 mm | - | 0 W/m² | - |
| 1777798662 | 3.89° C | 69% | 1010 hPa | 0 mm | - | 0 W/m² | - |
| 1777798359 | 4.44° C | 66% | 1010.1 hPa | 0 mm | - | 0 W/m² | - |
| 1777798056 | 4.44° C | 66% | 1010 hPa | 0 mm | - | 0 W/m² | - |
| 1777797754 | 5° C | 66% | 1010.1 hPa | 0 mm | - | 0 W/m² | - |
| 1777797451 | 5° C | 65% | 1010 hPa | 0 mm | - | 0 W/m² | - |
| 1777797148 | 5° C | 63% | 1009.7 hPa | 0 mm | - | 0 W/m² | - |
| 1777796845 | 5° C | 64% | 1009.8 hPa | 0 mm | - | 0 W/m² | - |
| 1777796542 | 5° C | 61% | 1009.9 hPa | 0 mm | - | 0 W/m² | - |
| 1777796237 | 5° C | 62% | 1010 hPa | 0 mm | - | 0 W/m² | - |
| 1777795934 | 5° C | 62% | 1010 hPa | 0 mm | - | 0 W/m² | - |
| 1777795630 | 5.56° C | 64% | 1010.1 hPa | 0 mm | - | 0 W/m² | - |
| 1777795327 | 5° C | 63% | 1010 hPa | 0 mm | - | 0 W/m² | - |
| 1777795023 | 5.56° C | 64% | 1009.9 hPa | 0 mm | - | 0 W/m² | - |
| 1777794720 | 5.56° C | 63% | 1010.3 hPa | 0 mm | - | 0 W/m² | - |
| 1777794415 | 5.56° C | 62% | 1010.2 hPa | 0 mm | - | 0 W/m² | - |
| 1777794111 | 5.56° C | 63% | 1010.2 hPa | 0 mm | - | 0 W/m² | - |
| 1777793807 | 5.56° C | 62% | 1010.3 hPa | 0 mm | - | 0 W/m² | - |
* Rain latest hour (hover to see other rain measurements)
** Current wind speed in m/s (hover to see current wind gust speed)